Location: Bois de la Silve
(44.4667°N, 6.7833°E)
Time: 04:11:16
(UTC+00:00)

Cosmos 1802 Rocket - Pass Details

Date: 14 July 2020
Orbit: 954 x 1011 km, 82.9° (Epoch: 06 August)

Event Time Altitude Azimuth Distance (km) Brightness Sun altitude
Exits shadow 01:03:01 35° 174° (S) 1,569 4.6 -21.2°
Maximum altitude 01:05:56 77° 95° (E) 1,037 4.1 -21.0°
Drops below altitude 10° 01:12:22 10° 11° (N) 2,801 7.5 -20.5°
Sets 01:14:55 0° 10° (N) 3,757 8.5 -20.3°
